Cosmos 2322 - Orbit

View from above orbital plane
View from above orbital plane
View from above satellite
View from above satellite

Ground track
Ground track

The orbit data is extracted from the following two-line orbital elements,

1 23704U 95058A   13139.46083080  .00000281  00000-0  17559-3 0  7460
2 23704 070.9855 285.7617 0010317 194.4235 221.1302 14.13173694905361
Epoch (UTC): 19 May 2013 11:03:35
Eccentricity: 0.0010317
inclination: 70.9855°
perigee height: 841 km
apogee height: 856 km
right ascension of ascending node: 285.7617°
argument of perigee: 194.4235°
revolutions per day: 14.13173694
mean anomaly at epoch: 221.1302°
orbit number at epoch: 90536

The dashed part of the orbit path shows where the satellite is in the earth's shadow,  

Developed and maintained by Chris Peat, Heavens-Above GmbH. Please read the updated FAQ before sending e-mail. Imprint. DLR